Preview of NWS' New Version of Forecast
This preview is not operational and should not be used for support decisions.

Regional Weather Roundup (RWR)

Issued by National Weather Service (NWS)

                            
000
ASUS42 KTBW 212218
RWRFL 
FLORIDA REGIONAL WEATHER ROUNDUP
NATIONAL WEATHER SERVICE TAMPA BAY RUSKIN FL
600 PM EDT WED AUG 21 2019

NOTE: "FAIR" INDICATES FEW OR NO CLOUDS BELOW 12,000 FEET WITH NO
SIGNIFICANT WEATHER AND/OR OBSTRUCTIONS TO VISIBILITY.

FLZ001>010-012>015-112-114-115-212300-
PANHANDLE FLORIDA
  
CITY           SKY/WX    TMP DP  RH WIND       PRES   REMARKS
PENSACOLA      FAIR      85  79  82 E8        30.04S HX  98           
PENSACOLA NAS  PTSUNNY   85  78  80 SE10      30.04R HX  96           
MILTON NAS     PTSUNNY   82  74  76 VRB3      30.05F                  
CRESTVIEW      FAIR      78  75  90 CALM      30.08R                  
DUKE FIELD     FAIR      78  73  86 CALM      30.06S                  
VALPARAISO     FAIR      86  72  63 SE7       30.05R                  
MARY ESTHER    PTSUNNY   85  75  70 S5        30.04R                  
TRI COUNTY     FAIR      78  71  79 S8        30.08R                  
PANAMA CITY    FAIR      76  73  91 SE3       30.05F                  
TYNDALL AFB    MOSUNNY   77  75  94 NE5       30.05F                  
APALACHICOLA   FAIR      85  74  69 SE6       30.05S                  

STATION/POSITION SKY/WX   TEMP    WIND        PRES    WAVE   SWELL
                          AIR SEA DIR/SP/G            HT/PER HT/PER
                          (F)     (DEG/KT/KT) (MB)    (FT/S) (FT/S)
30.1N   87.6W              85     120/  4/  6 1017.3F   2/ 6   2/ 6
29.2N   88.2W              85 87   90/  4/  6 1016.9F   2/ 7   2/ 7
28.8N   86.0W                 86  110/  6/  8 1017.3R   2/ 5   2/ 5
PANAMA CITY BEAC           82 87  100/  7/ 12 1018.6S
TOWER C                    83     150/  8/  9 1018.0F
28.5N   84.5W              84     120/  8/ 10 1018.1F   2/ 5   2/ 5

$$
FLZ011-016>038-118-127-128-134-139-239-212300-
NORTH FLORIDA
  
CITY           SKY/WX    TMP DP  RH WIND       PRES   REMARKS
MARIANNA       FAIR      79  73  82 S6        30.06R                  
TALLAHASSEE    CLOUDY    85  77  77 S5        30.06R HX  95           
PERRY          FAIR      90  76  64 W7        30.05S HX 101           
LIVE OAK       MOSUNNY   91  70  49 CALM      30.04S HX  97           
CROSS CITY     FAIR      91  72  53 W3        30.04S HX  97           
LAKE CITY      FAIR      90  68  48 CALM      30.05S                  
GAINESVILLE    PTSUNNY   92  71  50 NE6       30.06F HX  98           
WILLISTON      FAIR      91  72  52 SE3       30.03F HX  98           
MAYPORT NAS    FAIR      87  75  67 SE9       30.06F HX  96           
JACKSONVILLE   FAIR      89  70  53 E12       30.04F                  
JAX NAS        PTSUNNY   91  72  53 E14       30.06S HX  98           
JAX CECIL      MOSUNNY   90  73  58 E9        30.05S HX  98           
FERNANDINA BEA FAIR      86  78  75 MISG      30.07S HX  98           
ST AUGUSTINE   FAIR      86  77  74 E12       30.07S HX  97           
PALM COAST     SUNNY     88  73  62 E10       30.06F HX  96           

STATION/POSITION SKY/WX   TEMP    WIND        PRES    WAVE   SWELL
                          AIR SEA DIR/SP/G            HT/PER HT/PER
                          (F)     (DEG/KT/KT) (MB)    (FT/S) (FT/S)
SHELL POINT      NOT AVBL
KEATON BEACH               84     230/  7/  8 1017.5F
CEDAR KEY                  87     290/  7/  9 1017.6F
FERNANDINA                 92 84              1018.9F
30.7N   81.3W                 85                N/A     1/11
MAYPORT                    85 84   90/ 10/ 12 1018.7S
31.4N   80.9W              83 84  180/ 10/ 12 1017.9F   1/11   2/11
ST AUGUSTINE               83 85  110/  9/ 10 1018.2S

$$
FLZ040-043>046-052-053-057-058-063-144-212300-
INTERIOR CENTRAL FLORIDA
  
CITY           SKY/WX    TMP DP  RH WIND       PRES   REMARKS
OCALA          FAIR      91  73  55 E14       30.04F HX 100           
LEESBURG       FAIR      92  73  53 SE7       30.04F HX 100           
SANFORD        FAIR      90  73  57 E12       30.04S HX  98           
ORLANDO EXEC   FAIR      91  71  51 E13       30.04S HX  97           
ORLANDO INTL   FAIR      89  72  56 SE13      30.04S HX  96           
KISSIMMEE      FAIR      88  76  67 S7        30.04F HX  99           
WINTER HAVEN   PTSUNNY   91  74  57 E8        30.04F HX 100           
LAKELAND       MOSUNNY   90  72  55 SE5       30.03F HX  96           
SEBRING        MOCLDY    85  75  71 N7        30.03S                  
OKEECHOBEE     FAIR      88  72  58 E7        30.02F                  

$$
FLZ041-047-054-059-064-141-147-212300-
EAST CENTRAL FLORIDA
  
CITY           SKY/WX    TMP DP  RH WIND       PRES   REMARKS
ORMOND BEACH   MOSUNNY   86  75  70 E9G16     30.06F HX  95           
DAYTONA BEACH  FAIR      86  74  67 E9        30.06S                  
DELAND         FAIR      88  73  62 E13       30.05S HX  96           
NEW SMYRNA BEA MOSUNNY   86  75  70 E13       30.07S HX  95           
JFK SPACE CTR  FAIR      87  55  32 SE8       30.05F                  
TITUSVILLE     MOSUNNY   91  75  59 E7        30.07S HX 102           
CAPE CANAVERAL FAIR      87  78  74 CALM      30.05F HX  99           
PATRICK AFB    FAIR      87  78  75 E10       30.05F HX 100           
MELBOURNE      FAIR      88  75  65 E10       30.05F HX  97           
VERO BEACH     FAIR      87  74  64 E13       30.05F HX  95           
FT PIERCE      FAIR      87  73  62 E10       30.04F                  
STUART         SHOWER    86  75  70 E12       30.06F HX  95           

STATION/POSITION SKY/WX   TEMP    WIND        PRES    WAVE   SWELL
                          AIR SEA DIR/SP/G            HT/PER HT/PER
                          (F)     (DEG/KT/KT) (MB)    (FT/S) (FT/S)
28.5N   80.2W              84 85  100/ 10/ 12 1017.9F   2/ 7   2/ 7
28.9N   78.5W              85 87  100/ 10/ 12 1019.0F   2/11   2/11
TRIDENT PIER               86 82   80/  8/ 11 1019.6F
28.4N   80.5W                 83                N/A     2/11
27.5N   80.2W                 85                N/A     1/11

$$
FLZ050-056-061-142-242-148-248-149-249-151-251-155-255-
160-260-212300-
WEST CENTRAL FLORIDA
  
CITY           SKY/WX    TMP DP  RH WIND       PRES   REMARKS
CRYSTAL RIVER  FAIR      90  75  62 W6        30.03F HX 100           
INVERNESS      FAIR      91  73  55 CALM      30.03F HX 100           
BROOKSVILLE    PTSUNNY   92  72  51 CALM      30.03F HX  99           
CLEARWATER AIR FAIR      88  75  66 W6        30.03S HX  97           
ST PETE CLEARW FAIR      93  69  45 NE5       30.02F HX  98           
TAMPA INTL     PTSUNNY   91  72  53 CALM      30.02F HX  98           
PLANT CITY     FAIR     N/A N/A N/A CALM      30.04F                  
MACDILL AFB    FAIR      92  73  54 S8        30.02F HX 100           
PETER O KNIGHT CLOUDY    91  72  52 SW5       30.02F HX  98           
ST PETERSBURG  FAIR      88  75  65 SW10      30.01S HX  97           
SARASOTA       FAIR      87  77  72 W10       30.00F HX  99           
VENICE         FAIR      90  77  66 W8        30.03F HX 102           

STATION/POSITION SKY/WX   TEMP    WIND        PRES    WAVE   SWELL
                          AIR SEA DIR/SP/G            HT/PER HT/PER
                          (F)     (DEG/KT/KT) (MB)    (FT/S) (FT/S)
27.3N   84.2W                 85                N/A     2/ 4
CLEARWATER BEACH           85 87  230/ 12/ 13 1017.2F
MIDDLE TAMPA BAY           84     270/ 10/ 12 1017.1F
VENICE                     86 85  250/  8/ 10 1016.5F

$$
FLZ066-069-070-075>078-162-262-165-265-212300-
SOUTHWEST FLORIDA AND KEYS
  
CITY           SKY/WX    TMP DP  RH WIND       PRES   REMARKS
PUNTA GORDA    PTSUNNY   92  70  48 E3        30.02F HX  97           
FT MYERS       CLOUDY    89  75  63 W12       30.00S HX  99           
SOUTHWEST INTL TSTM      87  75  67 E10       30.00F HX  96           
NAPLES         FAIR      88  73  61 SW9       30.01S HX  95           
MARCO ISLAND   CLOUDY   N/A N/A N/A S10G16      N/A                   
IMMOKALEE      FAIR      93  73  52 NE8       29.99F HX 102           
MARATHON       FAIR      90  73  57 VRB6      30.02R HX  98           
KEY WEST NAS   PTSUNNY   86  74  67 S6        30.03F                  
KEY WEST INTL  FAIR      82  75  79 VRB6      30.03F                  

STATION/POSITION SKY/WX   TEMP    WIND        PRES    WAVE   SWELL
                          AIR SEA DIR/SP/G            HT/PER HT/PER
                          (F)     (DEG/KT/KT) (MB)    (FT/S) (FT/S)
NAPLES                     89 89              1016.5F
26.0N   85.6W              85 86  120/  4/  8 1016.3F   2/ 7   2/ 7
DRY TORTUGAS               82     330/  1/  2 1016.6F
SAND KEY                   81     170/  6/  8 1015.5
SOMBRERO KEY               84     170/  6/  8 1017.3
LONG KEY                   85                 1016.3

$$
FLZ067-068-071>074-168-172>174-212300-
SOUTHEAST FLORIDA 
  
CITY           SKY/WX    TMP DP  RH WIND       PRES   REMARKS
W PALM BEACH   FAIR      88  72  58 E13       30.04F                  
BOCA RATON     MOSUNNY   86  73  66 E16       30.03F                  
FT LAUDER-EXEC FAIR      86  72  62 E10       30.03S                  
FT LAUDERDALE  FAIR      87  71  58 E12       30.02F                  
POMPANO BEACH  FAIR      88  72  58 E13       30.03F                  
PEMBROKE PINES FAIR      89  72  56 E12       30.04S HX  96           
OPA LOCKA      PTSUNNY   87  72  60 E14       30.03S                  
MIAMI          PTSUNNY   88  70  55 E10       30.03S                  
WEST KENDALL   FAIR      87  73  62 E10       30.03R                  
HOMESTEAD      FAIR      85  74  68 E8        30.03R                  

STATION/POSITION SKY/WX   TEMP    WIND        PRES    WAVE   SWELL
                          AIR SEA DIR/SP/G            HT/PER HT/PER
                          (F)     (DEG/KT/KT) (MB)    (FT/S) (FT/S)
VIRGINIA KEY               85 89   60/  8/ 12 1016.6F
LAKE WORTH                 85 87   80/  8/  9 1018.4F
FOWEY ROCKS                84 87   80/  4/  5 1017.4R
SETTLEMENT POINT           82     130/  3/  4 1017.9S

$$